Retour au catalogue

THOR ABLESTAR DEB

ActifLEO
NORAD 408·DEBRIS·🇺🇸 United States

Lancé Jun 29, 1961 depuis Cape Canaveral Space Force Station

Loading…

Prochains Passages (prochaines 24 heures)

TLE

FraisSource: Space-Track

Époque: Sep 14, 2026, 11:20 UTC

1 00408U 61015EH  26257.47265199  .00000238  00000-0  31038-3 0  9991
2 00408  66.7837 256.0626 0057996  58.3187  19.7166 13.77219969317999

Suivez THOR ABLESTAR DEB en temps réel avec AllMySat

Download on the App Store